(52) Europa
ephemeris date magn radius delta ra dec elong phase
Today4 Sep 202612.32.748 AU3.545 AU08h43m+16°59'32.4°11.4°
Opposition24 Feb 202710.52.829 AU1.842 AU10h39m+14°11'174.6°1.9°
(52) Europa - 2026-09-04
astro.vanbuitenen.nl


 
-1 year
-1 month
-1 day
Now
+1 day
+1 month
+1 year

The interactive orbit chart above shows the body's path through the solar system and its position at the given date. Green and blue lines are shown perpendicular to the ecliptic plane: Green if the path is above the ecliptic plane, blue if it is below. (Left-click and drag to rotate the view; Right-click and drag to move the view; Use scroll wheel to zoom in our out.)

The orbital elements of Europa are:

            e (Eccentricity)                : 0.1124827
            a (Semimajor axis)              : 3.0941359
            i (Inclination)                 : 7.48150
            Ω (Longitude of ascending node) : 128.57341
            ω (Argument of perihelion)      : 342.80398
            M (Mean anomaly)                : 348.92279
            Epoch                           : 2026 Jun 09

            L (Longitude of perihelion)     : 111.51525
            B (Latitude of perihelion)      : -2.20611
            P (Orbital period in years)     : 5.44            
        

The light curve chart below shows the estimated development of the minor planet's magnitude.


The all-sky chart below shows the path of the minor planet over the same period as the light curve. The current position is marked yellow.





The following chart shows the path of the minor planet in the next few days. The field of view is optimized for (~10x50) binoculars and finderscopes.




Ephemerides:
Date       Time       RA (2000)    DEC (2000)    delta   radius  elong  phase   PA    magn
2026-09-04 00:00 UT   08 43 20.1   +16 59 14     3.545    2.748   32.4   11.4   283   12.3 
2026-09-04 20:53 UT   08 44 46.0   +16 54 47     3.539    2.748   32.9   11.5   283   12.3 
2026-09-05 00:00 UT   08 44 58.8   +16 54 07     3.538    2.748   33.0   11.5   283   12.3 
2026-09-06 00:00 UT   08 46 37.1   +16 48 58     3.531    2.748   33.6   11.7   284   12.3 
2026-09-07 00:00 UT   08 48 15.2   +16 43 46     3.523    2.748   34.1   11.9   284   12.3 
2026-09-08 00:00 UT   08 49 52.9   +16 38 33     3.516    2.748   34.7   12.0   284   12.3 
2026-09-09 00:00 UT   08 51 30.4   +16 33 17     3.508    2.748   35.3   12.2   284   12.3 
2026-09-10 00:00 UT   08 53 07.6   +16 27 60     3.501    2.748   35.8   12.4   284   12.3 
2026-09-11 00:00 UT   08 54 44.5   +16 22 41     3.493    2.748   36.4   12.6   285   12.3 
2026-09-12 00:00 UT   08 56 21.0   +16 17 20     3.485    2.749   37.0   12.7   285   12.3 
2026-09-13 00:00 UT   08 57 57.3   +16 11 57     3.477    2.749   37.6   12.9   285   12.3 
2026-09-14 00:00 UT   08 59 33.2   +16 06 33     3.469    2.749   38.2   13.1   285   12.3 
2026-09-15 00:00 UT   09 01 08.8   +16 01 07     3.461    2.749   38.7   13.2   285   12.3 
2026-09-16 00:00 UT   09 02 44.1   +15 55 40     3.452    2.749   39.3   13.4   285   12.3 
2026-09-17 00:00 UT   09 04 19.0   +15 50 12     3.444    2.749   39.9   13.6   286   12.3 
2026-09-18 00:00 UT   09 05 53.6   +15 44 42     3.435    2.750   40.5   13.7   286   12.3 
2026-09-19 00:00 UT   09 07 27.8   +15 39 12     3.427    2.750   41.1   13.9   286   12.3 
2026-09-20 00:00 UT   09 09 01.7   +15 33 40     3.418    2.750   41.7   14.1   286   12.3 
2026-09-21 00:00 UT   09 10 35.3   +15 28 06     3.409    2.750   42.3   14.2   286   12.3 
2026-09-22 00:00 UT   09 12 08.5   +15 22 32     3.400    2.750   42.8   14.4   286   12.3 
2026-09-23 00:00 UT   09 13 41.3   +15 16 58     3.391    2.751   43.4   14.5   287   12.3 
2026-09-24 00:00 UT   09 15 13.8   +15 11 22     3.382    2.751   44.0   14.7   287   12.3 
2026-09-25 00:00 UT   09 16 45.9   +15 05 45     3.373    2.751   44.6   14.8   287   12.3 


    Terminology:
            
    delta:  distance between minor planet and earth in AU
    radius: distance between minor planet and sun in AU
    magn:   magnitude (brightness) estimate    
    ra:     right ascension in hours (24h = 360deg)
    dec:    declination in degrees
    elong:  elongation in degrees (angle sun-earth-minor planet)    
    phase:  phase angle in degrees (angle sun-minor planet-earth)        
    AU:     Astronomical Unit (mean distance between earth and sun: 149597870.7 km
    

Orbital elements provided by the MPC (Minor Planet Center).
Calculations by a modified version of AAPlus, a C# implementation of the AA+ project by PJ Naughter from the algorithms presented in the book "Astronomical Algorithms" by Jean Meeus.
NGC2000 dso catalog and star labels from VizieR as provided by the Strasbourg astronomical Data Center.
Tycho2 catalog from the ESO archive.